Вернуться в каталог

DELTA 1 R/B(1)

АктивенLEO
NORAD 10793·ROCKET BODY·🇺🇸 United States

Запущен Apr 7, 1978 с Cape Canaveral Space Force Station

Loading…

Ближайшие Пролёты (ближайшие 24 часа)

TLE

СвежийSource: Space-Track

Эпоха: Sep 14, 2026, 13:27 UTC

1 10793U 78039B   26257.56110122  .00000612  00000-0  20660-3 0  9993
2 10793  28.2350 322.5254 0873711 251.8480  98.5078 13.07680016305502

Отслеживайте DELTA 1 R/B(1) в реальном времени с AllMySat

Download on the App Store